Regional Weather Roundup
Issued by NWS

Home | Current Version | Previous Version | Text Only | Print | Product List | Glossary On
Versions: 1 2 3 4 5 6 7 8 9 10 11 12 13 14 15 16 17 18 19 20 21 22 23 24 25 26 27 28 29 30 31 32 33 34 35 36 37 38 39 40 41 42 43 44 45 46 47 48 49 50
000
ASUS44 KFWD 211515
RWRTX
NORTH TEXAS HOURLY WEATHER ROUNDUP
NATIONAL WEATHER SERVICE FORT WORTH TX
1000 AM CDT THU AUG 21 2014

NOTE: "FAIR" INDICATES FEW OR NO CLOUDS BELOW 12,000 FEET WITH NO
SIGNIFICANT WEATHER AND/OR OBSTRUCTIONS TO VISIBILITY.

TXZ118-119-211600-
DALLAS/FORT WORTH METROPLEX

CITY           SKY/WX    TMP DP  RH WIND       PRES   REMARKS
DFW AIRPORT    PTSUNNY   86  74  67 S21G29    30.02F HX  94
DALLAS LOVE    MOSUNNY   85  74  69 S14G23    30.03F HX  92
FTW MEACHAM    MOSUNNY   86  73  65 S18G28    30.02S HX  93
DAL-EXECUTIVE  MOSUNNY   86  74  67 S8G21     30.04S HX  94
FTW-ALLIANCE   MOSUNNY   86  72  62 S15G23    30.01S HX  92
FTW-NAS-JRB    MOSUNNY   89  71  55 S18G24    30.06S HX  95
FTW-SPINKS     MOSUNNY   86  73  66 S13G25    30.04F HX  93
ARLINGTON      MOSUNNY   85  73  67 S13G24    30.03F HX  91
GRAND PRAIRIE  MOSUNNY   84  72  65 S12G23    30.05S
ADDISON        PTSUNNY   84  73  70 S13G24    30.04F HX  91
MESQUITE         N/A     82  75  78 S15G21    30.05S
LANCASTER      PTSUNNY   84  73  68 S14       30.05S HX  91
$$

TXZ091>094-102>105-117-120-121-131>134-211600-
NORTH CENTRAL TEXAS

CITY           SKY/WX    TMP DP  RH WIND       PRES   REMARKS
SHRMAN/DENISON MOSUNNY   84  72  66 S17G25    30.04F HX  90
GAINESVILLE    SUNNY     83  73  70 S16G22    30.05S
BOWIE          SUNNY     84  71  64 S15G22    30.02S
BRIDGEPORT     SUNNY     84  68  57 S13G23    30.04S
DECATUR        SUNNY     83  70  66 S13       30.04S
DENTON         MOSUNNY   85  72  65 S20G25    30.03R HX  91
MCKINNEY       PTSUNNY   84  74  71 S20       30.04S HX  91
GREENVILLE     CLOUDY    82  72  69 S10G16    30.07S
ROCKWALL       CLOUDY    82  75  78 S14G23    30.04S
TERRELL        CLOUDY    85  77  77 S13       30.06S HX  95
WAXAHACHIE     PTSUNNY   84  72  66 S15G24    30.05F HX  90
CLEBURNE       MOSUNNY   84  77  79 S15       30.05S HX  94
GRANBURY       PTSUNNY   87  72  59 S14G20    30.04S HX  93
$$

TXZ083>090-098>101-113>116-127>130-139>142-154-155-211600-
WESTERN NORTH TEXAS

CITY           SKY/WX    TMP DP  RH WIND       PRES   REMARKS
WICHITA FALLS  SUNNY     87  69  54 S21G28    29.98S HX  91
WF-KICKAPOO    SUNNY     86  67  52 SW12G20   30.00S
VERNON         SUNNY     87  67  51 S20G25    29.98S HX  90
ABILENE        MOSUNNY   84  71  65 S21G28    30.03S
ABILENE-DYESS  MOSUNNY   83  71  66 S18G29    30.02R
BRECKENRIDGE   SUNNY     87  69  54 SW18G26   30.02S HAZE    HX  90
GRAHAM         SUNNY     86  69  56 S13G20    30.00S HX  90
MINERAL WELLS  SUNNY     85  72  65 S12       30.01F HX  91
STEPHENVILLE   PTSUNNY   82  71  67 S15G24    30.07S
COMANCHE       SUNNY     84  70  62 SW15G22   30.04F
BROWNWOOD      SUNNY     84  72  65 S16       30.05S
COLEMAN        MOSUNNY   81  71  70 SW16      30.06R
$$

TXZ143>147-156>162-174-175-211600-
CENTRAL TEXAS

CITY           SKY/WX    TMP DP  RH WIND       PRES   REMARKS
WACO           PTSUNNY   86  73  65 S17       30.04S HX  93
WACO-TSTC      MOSUNNY   88  73  62 S23       30.05S HX  96
WACO-MCGREGOR  MOSUNNY   86  72  62 S21       30.05S HX  92
HILLSBORO      MOSUNNY   85  72  65 S15G26    30.05S HX  90
CORSICANA      PTSUNNY   87  74  64 S17G24    30.07S HX  95
MEXIA          PTSUNNY   86  76  71 S13G22    30.06S HX  95
HEARNE           N/A     88  73  62 S16G23    30.07S HX  95
CAMERON        SUNNY     88  72  59 S17G23    30.06S HX  94
TEMPLE         PTSUNNY   86  72  62 S21G28    30.04S HX  92
KILLEEN        MOSUNNY   84  72  65 S17G24    30.05S
KILLEEN-SKYLRK MOSUNNY   88  68  51 S18G24    30.05S HX  91
FORT HOOD      SUNNY     88  70  55 S14G24    30.05S HX  93
GATESVILLE     MOSUNNY   86  72  62 S15       30.07S HAZE    HX  92
HAMILTON       MOSUNNY   84  70  61 S20G25    30.06S
LAMPASAS       SUNNY     84  71  64 S12G20    30.05S
$$

TXZ095>097-106>112-122>126-135>138-148>153-164>167-211600-
EAST TEXAS

CITY           SKY/WX    TMP DP  RH WIND       PRES   REMARKS
PARIS          CLOUDY    81  72  74 SW13      30.08S
SULPHUR SPRNGS PTSUNNY   85  73  67 SW17      30.09S HX  91
CLARKSVILLE    PTSUNNY   84  76  76 S8        30.08S HX  92
MOUNT PLEASANT CLOUDY    83  75  77 S12       30.10S HX  91
GILMER         MOSUNNY   82  75  78 S9G16     30.10S
MINEOLA        PTSUNNY   84  77  79 S8        30.08S HX  94
TYLER          PTSUNNY   85  75  72 S12G22    30.08S HX  93
LONGVIEW       PTSUNNY   84  75  74 S12       30.09S HX  92
MARSHALL       PTSUNNY   86  79  79 SW9       30.12S HX  99
ATHENS         CLOUDY    82  77  83 S10G16    30.07S HX  91
PALESTINE      PTSUNNY   83  77  83 S7        30.09S HX  92
JACKSONVILLE   PTSUNNY   82  77  83 S10       30.12S HX  91
HENDERSON      CLOUDY    82  76  82 S8        30.11S HX  90
NACOGDOCHES    CLOUDY    81  79  94 S6        30.11S
LUFKIN         CLOUDY    83  78  85 S7        30.10S HX  93
$$

SUPPLEMENTAL OBSERVATIONS (CENTRAL)

CITY           SKY/WX    TMP DP  RH WIND       PRES   REMARKS
LAKE TEXOMA      N/A     82  70  65 SW15        N/A
CADDO GRASSLND   N/A     82  73  74 S14         N/A
PAT MAYSE LAKE   N/A     81  73  78 S16         N/A
GREENVILLE       N/A     82  73  74 S13         N/A
CEDAR HILL       N/A     88  75  66 S10         N/A  HX  97
PALESTINE        N/A     86  77  74 S9          N/A  HX  97
MCGREGOR         N/A     86  72  62 S15G26      N/A  HX  92
TEMPLE           N/A     86  70  58 S18G25      N/A  HX  90
$$

SUPPLEMENTAL OBSERVATIONS (WEST)

CITY           SKY/WX    TMP DP  RH WIND       PRES   REMARKS
MILLERS CREEK    N/A     86  72  62 SW21G26     N/A  HX  92
POSSUM KINGDOM   N/A     88  70  55 S13G21      N/A  HX  92
LBJ GRASSLAND    N/A     84  70  61 S10         N/A
GRANBURY         N/A     86  70  58 S17G23      N/A  HX  90
COMANCHE         N/A     84  72  65 S16G23      N/A
HAMBY            N/A     84  70  61 S21G28      N/A
IVIE RESERVOIR   N/A     84  70  61 S14         N/A
COLORADO BEND    N/A     84  68  58 S14G22      N/A
$$

SUPPLEMENTAL OBSERVATIONS (EAST)

CITY           SKY/WX    TMP DP  RH WIND       PRES   REMARKS
CLARKSVILLE      N/A     82  73  74 S10         N/A
TEXARKANA        N/A     82  73  74 SW6G14      N/A
LINDEN           N/A     82  73  74 W6          N/A
GILMER           N/A     84  75  74 SW8G16      N/A  HX  92
HENDERSON        N/A     82  75  78 S14         N/A
LUFKIN           N/A     82  81  94 MISG        N/A  HX  95
S SABINE NF      N/A     88  82  84 SE3         N/A  HX 108
$$

SUPPLEMENTAL OBSERVATIONS ARE A COLLECTION OF AUTOMATED INSTRUMENTS
THAT ARE MAINTAINED BY A VARIETY OF FEDERAL AND STATE AGENCIES.
CERTAIN ELEMENTS...SUCH AS HUMIDITY VALUES AND SUSTAINED WIND
SPEEDS...MAY BE APPROXIMATED.



USA.gov is the U.S. government's official web portal to all federal, state and local government web resources and services.